SVA304 HECA-OEJN

Flight info

Callsign SVA304
Flight time 1h 38m
Altitude 39000
Route CVO A727 NABED T55 DEDLU M999 MUVOL
Aircraft A333/H-SDE3GHIJ2J3J5M1RVWXY/LB2D1

Departure

Time 2026-04-29 13:35
Airport Cairo International Airport (HECA)

Arrival

Time 2026-04-29 15:13
Airport King Abdulaziz International Airport (OEJN)
Time Latitude Longitude Altitude Speed Heading
2026-04-29 13:00 30.11214 31.40296 378 ft 0 kts 197°
2026-04-29 13:22 30.11233 31.40303 378 ft 4 kts 197°
2026-04-29 13:22 30.11255 31.40311 378 ft 4 kts 193°
2026-04-29 13:23 30.11281 31.40313 378 ft 4 kts 161°
2026-04-29 13:23 30.11300 31.40296 378 ft 4 kts 117°
2026-04-29 13:23 30.11309 31.40268 378 ft 4 kts 104°
2026-04-29 13:23 30.11311 31.40258 378 ft 0 kts 106°
2026-04-29 13:28 30.11300 31.40302 378 ft 13 kts 106°
2026-04-29 13:28 30.11246 31.40414 378 ft 17 kts 140°
2026-04-29 13:28 30.11150 31.40506 378 ft 17 kts 139°
2026-04-29 13:28 30.11059 31.40598 378 ft 18 kts 139°
2026-04-29 13:29 30.11009 31.40636 378 ft 2 kts 179°
2026-04-29 13:29 30.10969 31.40603 378 ft 10 kts 227°
2026-04-29 13:29 30.10917 31.40531 378 ft 13 kts 229°
2026-04-29 13:29 30.10856 31.40451 378 ft 14 kts 228°
2026-04-29 13:30 30.10772 31.40341 378 ft 24 kts 229°
2026-04-29 13:30 30.10642 31.40168 378 ft 30 kts 229°
2026-04-29 13:30 30.10505 31.39986 378 ft 30 kts 229°
2026-04-29 13:30 30.10370 31.39805 378 ft 30 kts 230°
2026-04-29 13:31 30.10243 31.39642 378 ft 22 kts 227°
2026-04-29 13:31 30.10152 31.39569 378 ft 7 kts 170°
2026-04-29 13:31 30.10117 31.39602 378 ft 10 kts 139°
2026-04-29 13:31 30.10060 31.39660 378 ft 8 kts 138°
2026-04-29 13:32 30.10032 31.39690 378 ft 0 kts 134°
2026-04-29 13:33 30.10030 31.39691 378 ft 2 kts 134°
2026-04-29 13:33 30.10009 31.39745 378 ft 14 kts 102°
2026-04-29 13:33 30.10011 31.39867 375 ft 15 kts 82°
2026-04-29 13:34 30.10070 31.39960 378 ft 21 kts 49°
2026-04-29 13:34 30.10276 31.40237 378 ft 77 kts 50°
2026-04-29 13:34 30.10772 31.40892 375 ft 138 kts 49°
2026-04-29 13:34 30.11522 31.41899 408 ft 189 kts 47°
2026-04-29 13:35 30.12398 31.43079 1056 ft 197 kts 47°
2026-04-29 13:35 30.13277 31.44260 2080 ft 189 kts 46°
2026-04-29 13:35 30.14159 31.45444 2803 ft 204 kts 46°
2026-04-29 13:35 30.15154 31.46753 3224 ft 231 kts 46°
2026-04-29 13:36 30.16291 31.48224 3566 ft 257 kts 46°
2026-04-29 13:36 30.17378 31.49931 4249 ft 270 kts 64°
2026-04-29 13:36 30.17746 31.52063 5139 ft 276 kts 91°
2026-04-29 13:36 30.17239 31.54200 6020 ft 280 kts 119°
2026-04-29 13:37 30.16057 31.56003 6906 ft 285 kts 133°
2026-04-29 13:37 30.14638 31.57625 7793 ft 289 kts 142°
2026-04-29 13:37 30.12902 31.58796 8677 ft 291 kts 162°
2026-04-29 13:37 30.10924 31.59224 9618 ft 291 kts 179°
2026-04-29 13:38 30.08886 31.59187 10377 ft 298 kts 187°
2026-04-29 13:38 30.06782 31.58882 10692 ft 319 kts 192°
2026-04-29 13:38 30.04525 31.58405 11063 ft 338 kts 193°
2026-04-29 13:38 30.02181 31.57868 11696 ft 347 kts 194°
2026-04-29 13:39 29.99788 31.57337 12445 ft 353 kts 193°
2026-04-29 13:39 29.97349 31.56829 13209 ft 359 kts 193°
2026-04-29 13:39 29.94869 31.56343 13953 ft 364 kts 193°
2026-04-29 13:39 29.92349 31.55870 14626 ft 369 kts 192°
2026-04-29 13:40 29.89795 31.55404 15298 ft 374 kts 193°
2026-04-29 13:40 29.87207 31.54937 15988 ft 379 kts 193°
2026-04-29 13:40 29.84586 31.54465 16661 ft 383 kts 193°
2026-04-29 13:40 29.81931 31.53987 17309 ft 389 kts 193°
2026-04-29 13:41 29.79273 31.53505 17962 ft 394 kts 193°
2026-04-29 13:41 29.76551 31.53011 18595 ft 398 kts 194°
2026-04-29 13:41 29.73801 31.52520 19160 ft 403 kts 193°
2026-04-29 13:41 29.70982 31.52301 19767 ft 411 kts 184°
2026-04-29 13:42 29.68105 31.52624 20368 ft 420 kts 175°
2026-04-29 13:42 29.65222 31.53309 20935 ft 426 kts 171°
2026-04-29 13:42 29.62334 31.54171 21458 ft 432 kts 169°
2026-04-29 13:42 29.59429 31.55132 21984 ft 437 kts 168°
2026-04-29 13:43 29.56503 31.56135 22519 ft 440 kts 168°
2026-04-29 13:43 29.53556 31.57147 23077 ft 444 kts 169°
2026-04-29 13:43 29.50586 31.58156 23591 ft 447 kts 169°
2026-04-29 13:43 29.47580 31.59160 24001 ft 452 kts 169°
2026-04-29 13:44 29.44577 31.60150 24408 ft 455 kts 170°
2026-04-29 13:44 29.41510 31.61154 24809 ft 459 kts 170°
2026-04-29 13:44 29.38423 31.62160 25206 ft 463 kts 170°
2026-04-29 13:44 29.35314 31.63170 25609 ft 466 kts 170°
2026-04-29 13:45 29.32175 31.64190 26006 ft 470 kts 171°
2026-04-29 13:45 29.29018 31.65216 26396 ft 474 kts 171°
2026-04-29 13:45 29.25831 31.66251 26784 ft 477 kts 171°
2026-04-29 13:45 29.22617 31.67295 27158 ft 481 kts 171°
2026-04-29 13:46 29.19379 31.68346 27550 ft 484 kts 171°
2026-04-29 13:46 29.16163 31.69389 27921 ft 488 kts 171°
2026-04-29 13:46 29.12881 31.70453 28291 ft 491 kts 171°
2026-04-29 13:46 29.09574 31.71524 28669 ft 495 kts 171°
2026-04-29 13:47 29.06252 31.72600 29035 ft 498 kts 171°
2026-04-29 13:47 29.02903 31.73684 29411 ft 501 kts 171°
2026-04-29 13:47 28.99546 31.74771 29798 ft 504 kts 171°
2026-04-29 13:47 28.96159 31.75861 30141 ft 507 kts 171°
2026-04-29 13:48 28.92756 31.76947 30460 ft 509 kts 171°
2026-04-29 13:48 28.89329 31.78038 30816 ft 511 kts 171°
2026-04-29 13:48 28.85928 31.79118 31168 ft 513 kts 171°
2026-04-29 13:48 28.82485 31.80211 31529 ft 514 kts 171°
2026-04-29 13:49 28.79034 31.81306 31878 ft 516 kts 171°
2026-04-29 13:49 28.75571 31.82405 32277 ft 515 kts 171°
2026-04-29 13:49 28.72130 31.83499 32860 ft 511 kts 171°
2026-04-29 13:49 28.68713 31.84586 33417 ft 508 kts 171°
2026-04-29 13:50 28.65311 31.85666 33909 ft 506 kts 171°
2026-04-29 13:50 28.61925 31.86739 34321 ft 504 kts 171°
2026-04-29 13:50 28.58550 31.87806 34721 ft 502 kts 171°
2026-04-29 13:50 28.55191 31.88867 35127 ft 500 kts 171°
2026-04-29 13:51 28.51842 31.89924 35530 ft 498 kts 172°
2026-04-29 13:51 28.48499 31.90980 35911 ft 496 kts 172°
2026-04-29 13:51 28.45185 31.92026 36312 ft 493 kts 172°
2026-04-29 13:51 28.41880 31.93067 36672 ft 492 kts 172°
2026-04-29 13:52 28.38625 31.94092 36997 ft 492 kts 172°
2026-04-29 13:52 28.35331 31.95128 37337 ft 491 kts 173°
2026-04-29 13:52 28.32039 31.96163 37667 ft 489 kts 173°
2026-04-29 13:52 28.28761 31.97193 38000 ft 489 kts 173°
2026-04-29 13:53 28.25484 31.98223 38326 ft 488 kts 173°
2026-04-29 13:53 28.22224 31.99247 38626 ft 486 kts 173°
2026-04-29 13:53 28.18967 32.00270 38882 ft 485 kts 174°
2026-04-29 13:53 28.15706 32.01291 38950 ft 487 kts 174°
2026-04-29 13:54 28.09190 32.03331 38965 ft 485 kts 174°
2026-04-29 13:54 28.02679 32.05371 38959 ft 485 kts 173°
2026-04-29 13:55 27.96176 32.07443 38930 ft 485 kts 173°
2026-04-29 13:55 27.89673 32.09529 38961 ft 485 kts 174°
2026-04-29 13:56 27.83216 32.11598 38961 ft 485 kts 174°
2026-04-29 13:56 27.76716 32.13674 38959 ft 484 kts 174°
2026-04-29 13:57 27.70226 32.15742 38954 ft 484 kts 174°
2026-04-29 13:57 27.63734 32.17809 38954 ft 484 kts 174°
2026-04-29 13:58 27.57254 32.19869 38951 ft 484 kts 174°
2026-04-29 13:58 27.50770 32.21928 38947 ft 484 kts 174°
2026-04-29 13:59 27.44293 32.23982 38951 ft 484 kts 174°
2026-04-29 13:59 27.37816 32.26033 38937 ft 483 kts 175°
2026-04-29 14:00 27.31449 32.28784 38951 ft 504 kts 159°
2026-04-29 14:00 27.28532 32.31064 38945 ft 518 kts 147°
2026-04-29 14:00 27.25982 32.33914 38949 ft 527 kts 140°
2026-04-29 14:01 27.21189 32.40221 38936 ft 532 kts 136°
2026-04-29 14:01 27.16537 32.46707 38936 ft 533 kts 136°
2026-04-29 14:02 27.11858 32.53175 38931 ft 532 kts 136°
2026-04-29 14:02 27.07145 32.59594 38879 ft 532 kts 136°
2026-04-29 14:03 27.02420 32.65983 38928 ft 533 kts 137°
2026-04-29 14:03 26.97677 32.72382 38922 ft 533 kts 137°
2026-04-29 14:04 26.92967 32.78735 38920 ft 533 kts 137°
2026-04-29 14:04 26.88227 32.85119 38914 ft 533 kts 137°
2026-04-29 14:05 26.83483 32.91500 38909 ft 533 kts 137°
2026-04-29 14:05 26.78738 32.97874 38912 ft 533 kts 137°
2026-04-29 14:06 26.73992 33.04240 38910 ft 532 kts 137°
2026-04-29 14:06 26.69242 33.10602 38910 ft 532 kts 137°
2026-04-29 14:07 26.64488 33.16958 38904 ft 532 kts 138°
2026-04-29 14:07 26.59743 33.23296 38914 ft 531 kts 138°
2026-04-29 14:08 26.54999 33.29625 38914 ft 530 kts 138°
2026-04-29 14:08 26.50292 33.35892 38914 ft 530 kts 138°
2026-04-29 14:09 26.45545 33.42202 38914 ft 530 kts 138°
2026-04-29 14:09 26.40795 33.48511 38912 ft 530 kts 138°
2026-04-29 14:10 26.36055 33.54799 38911 ft 530 kts 138°
2026-04-29 14:10 26.31342 33.61041 38915 ft 529 kts 138°
2026-04-29 14:11 26.26591 33.67324 38912 ft 529 kts 138°
2026-04-29 14:11 26.21849 33.73586 38912 ft 529 kts 138°
2026-04-29 14:12 26.17105 33.79844 38910 ft 529 kts 138°
2026-04-29 14:12 26.12358 33.86098 38911 ft 528 kts 139°
2026-04-29 14:13 26.07612 33.92341 38910 ft 528 kts 139°
2026-04-29 14:13 26.02859 33.98584 38912 ft 529 kts 139°
2026-04-29 14:14 25.98104 34.04821 38914 ft 529 kts 139°
2026-04-29 14:14 25.93338 34.11065 38913 ft 529 kts 139°
2026-04-29 14:15 25.88578 34.17294 38882 ft 529 kts 139°
2026-04-29 14:15 25.83848 34.23477 38919 ft 528 kts 139°
2026-04-29 14:16 25.79084 34.29695 38924 ft 528 kts 139°
2026-04-29 14:16 25.75121 34.34860 38920 ft 528 kts 139°
2026-04-29 14:17 25.70347 34.41074 38918 ft 528 kts 139°
2026-04-29 14:17 25.64799 34.48288 38903 ft 528 kts 139°
2026-04-29 14:18 25.60805 34.53473 38901 ft 528 kts 139°
2026-04-29 14:18 25.55932 34.59522 38914 ft 522 kts 143°
2026-04-29 14:19 25.50813 34.65132 38913 ft 519 kts 145°
2026-04-29 14:19 25.45613 34.70692 38902 ft 520 kts 145°
2026-04-29 14:20 25.40437 34.76284 38903 ft 520 kts 144°
2026-04-29 14:20 25.35287 34.81897 38906 ft 519 kts 144°
2026-04-29 14:21 25.30144 34.87512 38900 ft 519 kts 144°
2026-04-29 14:21 25.25035 34.93080 38905 ft 519 kts 144°
2026-04-29 14:22 25.19884 34.98685 38900 ft 519 kts 144°
2026-04-29 14:22 25.14739 35.04275 38900 ft 519 kts 144°
2026-04-29 14:23 25.09597 35.09856 38900 ft 518 kts 144°
2026-04-29 14:23 25.04454 35.15425 38899 ft 517 kts 144°
2026-04-29 14:24 24.99297 35.20970 38898 ft 517 kts 145°
2026-04-29 14:24 24.94167 35.26471 38885 ft 517 kts 145°
2026-04-29 14:25 24.89008 35.31999 38896 ft 517 kts 145°
2026-04-29 14:25 24.83855 35.37518 38898 ft 516 kts 145°
2026-04-29 14:26 24.78696 35.43036 38894 ft 516 kts 145°
2026-04-29 14:26 24.73540 35.48545 38893 ft 516 kts 144°
2026-04-29 14:27 24.68423 35.54005 38894 ft 515 kts 144°
2026-04-29 14:28 24.60693 35.62241 38895 ft 515 kts 144°
2026-04-29 14:28 24.55569 35.67691 38894 ft 515 kts 144°
2026-04-29 14:29 24.50419 35.73163 38892 ft 515 kts 144°
2026-04-29 14:29 24.45259 35.78639 38889 ft 515 kts 144°
2026-04-29 14:30 24.40102 35.84106 38884 ft 515 kts 144°
2026-04-29 14:30 24.34953 35.89558 38892 ft 514 kts 144°
2026-04-29 14:31 24.29805 35.95003 38892 ft 514 kts 144°
2026-04-29 14:31 24.24688 36.00407 38899 ft 514 kts 144°
2026-04-29 14:32 24.19537 36.05840 38895 ft 514 kts 144°
2026-04-29 14:32 24.14387 36.11268 38894 ft 514 kts 144°
2026-04-29 14:33 24.09230 36.16696 38892 ft 514 kts 144°
2026-04-29 14:33 24.04076 36.22114 38892 ft 513 kts 144°
2026-04-29 14:34 23.98930 36.27519 38895 ft 512 kts 144°
2026-04-29 14:34 23.93817 36.32882 38898 ft 511 kts 144°
2026-04-29 14:35 23.88675 36.38268 38895 ft 511 kts 144°
2026-04-29 14:35 23.83539 36.43641 38895 ft 511 kts 144°
2026-04-29 14:36 23.78396 36.49016 38895 ft 511 kts 144°
2026-04-29 14:36 23.73257 36.54381 38894 ft 511 kts 144°
2026-04-29 14:37 23.68161 36.59697 38897 ft 510 kts 143°
2026-04-29 14:37 23.63036 36.65034 38897 ft 509 kts 144°
2026-04-29 14:38 23.57910 36.70367 38897 ft 509 kts 144°
2026-04-29 14:38 23.52786 36.75692 38885 ft 509 kts 143°
2026-04-29 14:39 23.47662 36.81012 38897 ft 508 kts 143°
2026-04-29 14:39 23.42548 36.86314 38900 ft 508 kts 143°
2026-04-29 14:40 23.37419 36.91626 38902 ft 508 kts 143°
2026-04-29 14:40 23.32301 36.96920 38892 ft 507 kts 143°
2026-04-29 14:41 23.27219 37.02173 38902 ft 506 kts 143°
2026-04-29 14:41 23.22112 37.07446 38905 ft 505 kts 143°
2026-04-29 14:42 23.17019 37.12697 38902 ft 505 kts 143°
2026-04-29 14:42 23.11920 37.17948 38898 ft 505 kts 143°
2026-04-29 14:43 23.06852 37.23162 38904 ft 505 kts 143°
2026-04-29 14:43 23.01747 37.28409 38904 ft 504 kts 143°
2026-04-29 14:44 22.96654 37.33638 38881 ft 503 kts 143°
2026-04-29 14:44 22.91589 37.38834 38902 ft 500 kts 143°
2026-04-29 14:45 22.86579 37.43967 38903 ft 498 kts 143°
2026-04-29 14:45 22.81532 37.49130 38897 ft 498 kts 143°
2026-04-29 14:46 22.76512 37.54311 38908 ft 499 kts 139°
2026-04-29 14:46 22.72154 37.60224 38894 ft 504 kts 132°
2026-04-29 14:47 22.68091 37.66384 38911 ft 506 kts 130°
2026-04-29 14:47 22.64016 37.72649 38904 ft 506 kts 130°
2026-04-29 14:48 22.59963 37.78844 38900 ft 502 kts 131°
2026-04-29 14:48 22.55952 37.84956 38902 ft 501 kts 131°
2026-04-29 14:49 22.51910 37.91103 38896 ft 501 kts 131°
2026-04-29 14:49 22.47861 37.97251 38896 ft 501 kts 131°
2026-04-29 14:50 22.43808 38.03398 38336 ft 507 kts 131°
2026-04-29 14:50 22.41746 38.06519 37422 ft 513 kts 131°
2026-04-29 14:50 22.39683 38.09640 36443 ft 521 kts 131°
2026-04-29 14:50 22.37558 38.12854 35499 ft 529 kts 131°
2026-04-29 14:51 22.35406 38.16109 34577 ft 536 kts 131°
2026-04-29 14:51 22.33226 38.19405 33653 ft 542 kts 131°
2026-04-29 14:51 22.31022 38.22737 32724 ft 546 kts 130°
2026-04-29 14:51 22.28813 38.26076 31903 ft 547 kts 130°
2026-04-29 14:52 22.26600 38.29418 31164 ft 547 kts 130°
2026-04-29 14:52 22.24397 38.32745 30529 ft 544 kts 130°
2026-04-29 14:52 22.22202 38.36056 29945 ft 539 kts 131°
2026-04-29 14:52 22.20000 38.39306 29333 ft 532 kts 132°
2026-04-29 14:53 22.17753 38.42457 28723 ft 526 kts 133°
2026-04-29 14:53 22.15538 38.45534 28603 ft 510 kts 133°
2026-04-29 14:53 22.13389 38.48537 28044 ft 502 kts 132°
2026-04-29 14:53 22.11264 38.51509 26865 ft 500 kts 131°
2026-04-29 14:54 22.09142 38.54473 25755 ft 497 kts 131°
2026-04-29 14:54 22.07079 38.57356 24851 ft 486 kts 130°
2026-04-29 14:54 22.05031 38.60217 23896 ft 478 kts 129°
2026-04-29 14:54 22.03014 38.63031 22839 ft 469 kts 129°
2026-04-29 14:55 22.01034 38.65792 21698 ft 461 kts 129°
2026-04-29 14:55 21.99081 38.68513 20574 ft 454 kts 129°
2026-04-29 14:55 21.97165 38.71182 19450 ft 447 kts 129°
2026-04-29 14:55 21.95302 38.73776 18356 ft 440 kts 129°
2026-04-29 14:56 21.93443 38.76364 17228 ft 431 kts 129°
2026-04-29 14:56 21.91631 38.78885 16346 ft 417 kts 129°
2026-04-29 14:56 21.89928 38.81256 16290 ft 382 kts 129°
2026-04-29 14:56 21.88367 38.83432 16300 ft 351 kts 129°
2026-04-29 14:57 21.86936 38.85422 16304 ft 323 kts 129°
2026-04-29 14:57 21.85613 38.87261 16332 ft 299 kts 129°
2026-04-29 14:57 21.84386 38.88965 16344 ft 279 kts 130°
2026-04-29 14:57 21.83225 38.90576 16324 ft 270 kts 130°
2026-04-29 14:58 21.82026 38.92232 16056 ft 291 kts 130°
2026-04-29 14:58 21.80781 38.93954 15910 ft 289 kts 130°
2026-04-29 14:58 21.79564 38.95642 15583 ft 290 kts 130°
2026-04-29 14:58 21.78346 38.97382 15243 ft 292 kts 125°
2026-04-29 14:59 21.77489 38.99365 14943 ft 293 kts 107°
2026-04-29 14:59 21.77005 39.01484 14597 ft 289 kts 102°
2026-04-29 14:59 21.76606 39.03600 14144 ft 287 kts 102°
2026-04-29 14:59 21.76218 39.05700 13688 ft 285 kts 102°
2026-04-29 15:00 21.75829 39.07786 13194 ft 282 kts 102°
2026-04-29 15:00 21.75440 39.09847 12715 ft 280 kts 103°
2026-04-29 15:00 21.75050 39.11894 12215 ft 278 kts 103°
2026-04-29 15:00 21.74662 39.13921 11771 ft 274 kts 103°
2026-04-29 15:01 21.74277 39.15927 11291 ft 273 kts 103°
2026-04-29 15:01 21.73895 39.17916 10822 ft 271 kts 104°
2026-04-29 15:01 21.73516 39.19887 10400 ft 267 kts 104°
2026-04-29 15:01 21.73141 39.21834 10002 ft 263 kts 104°
2026-04-29 15:02 21.72666 39.23692 9551 ft 259 kts 116°
2026-04-29 15:02 21.71699 39.25277 9050 ft 251 kts 140°
2026-04-29 15:02 21.70282 39.26305 8551 ft 243 kts 160°
2026-04-29 15:02 21.68723 39.26979 8093 ft 240 kts 164°
2026-04-29 15:03 21.67160 39.27582 7649 ft 238 kts 163°
2026-04-29 15:03 21.65607 39.28176 7223 ft 235 kts 165°
2026-04-29 15:03 21.64080 39.28766 6833 ft 231 kts 165°
2026-04-29 15:03 21.62560 39.29359 6366 ft 234 kts 163°
2026-04-29 15:04 21.61004 39.29963 5693 ft 242 kts 163°
2026-04-29 15:04 21.59419 39.30579 5188 ft 240 kts 163°
2026-04-29 15:04 21.57902 39.31176 4983 ft 231 kts 163°
2026-04-29 15:04 21.56389 39.31765 5001 ft 231 kts 165°
2026-04-29 15:05 21.54898 39.32350 4837 ft 227 kts 164°
2026-04-29 15:05 21.53904 39.32739 4565 ft 233 kts 164°
2026-04-29 15:05 21.51802 39.33557 3881 ft 247 kts 165°
2026-04-29 15:05 21.50161 39.34203 3387 ft 253 kts 163°
2026-04-29 15:06 21.48472 39.34514 3080 ft 240 kts 189°
2026-04-29 15:06 21.47031 39.33917 3039 ft 210 kts 223°
2026-04-29 15:06 21.46211 39.32722 3039 ft 195 kts 248°
2026-04-29 15:06 21.45701 39.31383 3014 ft 193 kts 253°
2026-04-29 15:07 21.45227 39.30035 3008 ft 193 kts 253°
2026-04-29 15:07 21.44810 39.28680 3001 ft 189 kts 265°
2026-04-29 15:07 21.45078 39.27388 3002 ft 182 kts 306°
2026-04-29 15:07 21.45998 39.26451 3005 ft 184 kts 323°
2026-04-29 15:08 21.47127 39.25790 3005 ft 187 kts 333°
2026-04-29 15:08 21.48347 39.25276 3004 ft 190 kts 338°
2026-04-29 15:08 21.49594 39.24789 3002 ft 190 kts 337°
2026-04-29 15:08 21.50841 39.24301 2998 ft 191 kts 337°
2026-04-29 15:09 21.51667 39.23976 3000 ft 191 kts 336°
2026-04-29 15:09 21.52923 39.23477 2836 ft 194 kts 337°
2026-04-29 15:09 21.54192 39.22974 2576 ft 195 kts 338°
2026-04-29 15:09 21.55453 39.22477 2314 ft 189 kts 339°
2026-04-29 15:10 21.56656 39.22002 2053 ft 177 kts 338°
2026-04-29 15:10 21.57771 39.21561 1835 ft 164 kts 339°
2026-04-29 15:10 21.58805 39.21153 1628 ft 152 kts 340°
2026-04-29 15:10 21.59783 39.20766 1432 ft 149 kts 339°
2026-04-29 15:11 21.60763 39.20378 1246 ft 150 kts 339°
2026-04-29 15:11 21.61739 39.19991 1047 ft 148 kts 339°
2026-04-29 15:11 21.62694 39.19614 881 ft 144 kts 339°
2026-04-29 15:11 21.63621 39.19248 706 ft 136 kts 340°
2026-04-29 15:12 21.64456 39.18917 556 ft 122 kts 340°
2026-04-29 15:12 21.65236 39.18607 407 ft 118 kts 339°
2026-04-29 15:12 21.66011 39.18297 229 ft 118 kts 339°
2026-04-29 15:12 21.66768 39.17998 56 ft 114 kts 339°
2026-04-29 15:13 21.67425 39.17741 36 ft 77 kts 340°
2026-04-29 15:13 21.67812 39.17590 37 ft 52 kts 340°
2026-04-29 15:13 21.68118 39.17469 33 ft 41 kts 340°
2026-04-29 15:13 21.68330 39.17324 30 ft 33 kts 308°
2026-04-29 15:14 21.68422 39.17189 31 ft 15 kts 291°
2026-04-29 15:14 21.68370 39.17144 32 ft 12 kts 175°
2026-04-29 15:14 21.68286 39.17171 32 ft 11 kts 161°
2026-04-29 15:14 21.68204 39.17202 33 ft 13 kts 161°
2026-04-29 15:15 21.68129 39.17231 33 ft 10 kts 160°
2026-04-29 15:15 21.68059 39.17258 34 ft 10 kts 160°
2026-04-29 15:15 21.67998 39.17282 34 ft 8 kts 160°
2026-04-29 15:15 21.67940 39.17304 34 ft 8 kts 160°
2026-04-29 15:16 21.67879 39.17328 35 ft 10 kts 160°
2026-04-29 15:16 21.67806 39.17357 35 ft 12 kts 160°
2026-04-29 15:16 21.67723 39.17391 36 ft 14 kts 158°
2026-04-29 15:16 21.67628 39.17432 36 ft 16 kts 159°
2026-04-29 15:17 21.67520 39.17475 36 ft 17 kts 159°
2026-04-29 15:17 21.67400 39.17523 37 ft 19 kts 160°
2026-04-29 15:17 21.67267 39.17574 37 ft 21 kts 160°
2026-04-29 15:17 21.67121 39.17630 37 ft 23 kts 159°
2026-04-29 15:18 21.67017 39.17671 38 ft 4 kts 161°
2026-04-29 15:18 21.66999 39.17670 38 ft 3 kts 199°
2026-04-29 15:18 21.66979 39.17626 38 ft 11 kts 250°
2026-04-29 15:18 21.66950 39.17539 38 ft 14 kts 250°
2026-04-29 15:19 21.66913 39.17437 38 ft 16 kts 248°
2026-04-29 15:19 21.66875 39.17334 38 ft 12 kts 249°
2026-04-29 15:19 21.66890 39.17267 38 ft 8 kts 283°
2026-04-29 15:19 21.66879 39.17218 38 ft 5 kts 253°
2026-04-29 15:20 21.66872 39.17194 38 ft 3 kts 253°
2026-04-29 15:20 21.66868 39.17180 38 ft 0 kts 253°